Date String (YYYY-MM-DD hh:mm:ss) UTC,Instrument flags,Ambient pressure (hPa),Sample flow (lpm),Bypass flow (lpm),Sample temperature (°C),Ambient temperature (°C),ASC tube jacket temperature (°C),LED temperature (°C),Box temperature (°C),Sample RH (%),Span deviation,Mass concentration (μg/m³),Mass concentration (μg/m³),Mass concentration (μg/m³)
DateTimeUTC,F1_M11,P_M11,Q1_M11,Q2_M11,T1_M11,T2_M11,T3_M11,T4_M11,T5_M11,U1_M11,ZSPAN_M11,X0_M11,X2_M11,X1_M11
2021-12-11 02:00:00,,0821.7,5.01,0.00,21.9,21.1,00.0,31.2,23.3,05.4,0000.0,0006.97,0001.88,0001.37
2021-12-11 02:01:00,,0821.8,4.99,0.00,21.9,20.9,00.0,31.1,23.1,05.5,0000.0,0006.98,0001.87,0001.36
2021-12-11 02:02:00,,0821.7,5.01,0.00,21.8,20.8,00.0,31.1,23.1,05.5,0000.0,0006.35,0001.85,0001.34
2021-12-11 02:03:00,,0821.8,4.99,0.00,21.8,21.0,00.0,31.1,23.2,05.5,0000.0,0005.95,0001.84,0001.33
2021-12-11 02:04:00,,0821.8,5.00,0.00,21.9,21.8,00.0,31.1,23.6,05.5,0000.0,0005.67,0001.82,0001.32
2021-12-11 02:05:00,,0821.8,5.00,0.00,22.0,22.6,00.0,31.1,23.9,05.5,0000.0,0005.65,0001.84,0001.33
2021-12-11 02:06:00,,0821.8,4.99,0.00,22.2,23.1,00.0,31.2,24.2,05.5,0000.0,0004.61,0001.86,0001.33
2021-12-11 02:07:00,,0821.8,5.01,0.00,22.3,22.8,00.0,31.2,24.1,05.2,0000.0,0004.30,0001.86,0001.33
2021-12-11 02:08:00,,0821.8,5.00,0.00,22.2,22.4,00.0,31.2,23.9,05.3,0000.0,0003.28,0001.83,0001.32
2021-12-11 02:09:00,,0821.8,5.00,0.00,22.2,22.0,00.0,31.2,23.7,05.3,0000.0,0003.27,0001.83,0001.33
2021-12-11 02:10:00,,0821.8,5.00,0.00,22.1,21.7,00.0,31.2,23.6,05.3,0000.0,0003.12,0001.80,0001.32
2021-12-11 02:11:00,,0821.8,5.02,0.00,22.0,21.5,00.0,31.2,23.5,05.4,0000.0,0002.95,0001.75,0001.30
2021-12-11 02:12:00,,0821.7,4.98,0.00,22.0,21.2,00.0,31.1,23.4,05.4,0000.0,0002.85,0001.73,0001.29
2021-12-11 02:13:00,,0821.8,5.01,0.00,21.9,21.1,00.0,31.1,23.4,05.5,0000.0,0002.79,0001.70,0001.29
2021-12-11 02:14:00,,0821.8,5.00,0.00,21.9,21.0,00.0,31.1,23.3,05.4,0000.0,0002.83,0001.77,0001.31
2021-12-11 02:15:00,,0821.8,4.99,0.00,21.8,20.9,00.0,31.1,23.2,05.4,0000.0,0002.78,0001.78,0001.33
2021-12-11 02:16:00,,0821.9,5.02,0.00,21.9,21.6,00.0,31.1,23.5,05.3,0000.0,0002.83,0001.78,0001.32
2021-12-11 02:17:00,,0821.8,4.99,0.00,22.0,22.4,00.0,31.1,23.8,05.3,0000.0,0002.90,0001.79,0001.32
2021-12-11 02:18:00,,0821.9,5.01,0.00,22.2,23.1,00.0,31.2,24.1,05.2,0000.0,0002.86,0001.78,0001.32
2021-12-11 02:19:00,,0822.0,5.01,0.00,22.3,23.4,00.0,31.2,24.3,05.3,0000.0,0002.93,0001.76,0001.31
2021-12-11 02:20:00,,0822.0,4.98,0.00,22.4,23.0,00.0,31.2,24.2,05.3,0000.0,0003.14,0001.74,0001.31
2021-12-11 02:21:00,,0821.9,5.01,0.00,22.3,22.6,00.0,31.2,24.0,05.3,0000.0,0003.06,0001.73,0001.31
2021-12-11 02:22:00,,0821.9,4.99,0.00,22.2,22.2,00.0,31.2,23.9,05.4,0000.0,0003.13,0001.76,0001.31
2021-12-11 02:23:00,,0821.9,5.01,0.00,22.2,21.8,00.0,31.2,23.7,05.4,0000.0,0003.31,0001.82,0001.31
2021-12-11 02:24:00,,0822.0,5.01,0.00,22.1,21.5,00.0,31.2,23.6,05.4,0000.0,0003.44,0001.85,0001.31
2021-12-11 02:25:00,,0822.1,4.99,0.00,22.1,21.3,00.0,31.2,23.5,05.6,0000.0,0003.35,0001.81,0001.30
2021-12-11 02:26:00,,0822.1,4.99,0.00,22.0,21.0,00.0,31.2,23.4,05.5,0000.0,0003.46,0001.83,0001.29
2021-12-11 02:27:00,,0822.1,5.00,0.00,21.9,20.9,00.0,31.1,23.4,05.5,0000.0,0003.40,0001.82,0001.30
2021-12-11 02:28:00,,0822.1,5.01,0.00,21.9,20.8,00.0,31.1,23.3,05.5,0000.0,0004.06,0001.80,0001.29
2021-12-11 02:29:00,,0822.1,5.01,0.00,21.8,20.7,00.0,31.1,23.2,05.4,0000.0,0004.19,0001.83,0001.29
2021-12-11 02:30:00,,0822.1,4.98,0.00,21.9,21.1,00.0,31.1,23.4,05.5,0000.0,0004.20,0001.86,0001.30
2021-12-11 02:31:00,,0822.2,5.00,0.00,22.0,22.0,00.0,31.1,23.8,05.4,0000.0,0003.77,0001.83,0001.30
2021-12-11 02:32:00,,0822.2,5.00,0.00,22.1,22.8,00.0,31.2,24.1,05.4,0000.0,0003.80,0001.82,0001.30
2021-12-11 02:33:00,,0822.3,5.00,0.00,22.3,23.1,00.0,31.2,24.2,05.4,0000.0,0003.79,0001.81,0001.30
2021-12-11 02:34:00,,0822.3,5.00,0.00,22.3,22.7,00.0,31.2,24.1,05.5,0000.0,0003.73,0001.78,0001.31
2021-12-11 02:35:00,,0822.3,5.01,0.00,22.3,22.4,00.0,31.2,24.0,05.5,0000.0,0003.57,0001.74,0001.31
2021-12-11 02:36:00,,0822.3,5.00,0.00,22.2,22.1,00.0,31.2,23.9,05.5,0000.0,0003.55,0001.72,0001.31
2021-12-11 02:37:00,,0822.3,4.99,0.00,22.2,21.8,00.0,31.2,23.7,05.5,0000.0,0003.54,0001.68,0001.30
2021-12-11 02:38:00,,0822.4,4.99,0.00,22.1,21.6,00.0,31.2,23.7,05.5,0000.0,0003.52,0001.67,0001.29
2021-12-11 02:39:00,,0822.4,5.01,0.00,22.1,21.5,00.0,31.2,23.6,05.6,0000.0,0003.06,0001.67,0001.29
2021-12-11 02:40:00,,0822.3,5.01,0.00,22.0,21.4,00.0,31.2,23.6,05.6,0000.0,0002.66,0001.64,0001.29
2021-12-11 02:41:00,,0822.3,4.98,0.00,22.0,21.3,00.0,31.1,23.5,05.6,0000.0,0002.62,0001.62,0001.28
2021-12-11 02:42:00,,0822.4,5.00,0.00,22.0,21.2,00.0,31.1,23.5,05.6,0000.0,0002.67,0001.63,0001.28
2021-12-11 02:43:00,,0822.4,5.01,0.00,21.9,21.1,00.0,31.1,23.4,05.6,0000.0,0002.76,0001.63,0001.28
2021-12-11 02:44:00,,0822.4,4.99,0.00,22.0,21.7,00.0,31.1,23.6,05.7,0000.0,0002.85,0001.64,0001.28
2021-12-11 02:45:00,,0822.3,5.00,0.00,22.1,22.5,00.0,31.1,23.9,05.7,0000.0,0002.82,0001.64,0001.28
2021-12-11 02:46:00,,0822.4,5.01,0.00,22.2,23.0,00.0,31.2,24.2,05.6,0000.0,0002.85,0001.64,0001.29
2021-12-11 02:47:00,,0822.4,5.01,0.00,22.3,22.8,00.0,31.2,24.2,05.6,0000.0,0003.31,0001.68,0001.29
2021-12-11 02:48:00,,0822.4,4.99,0.00,22.3,22.5,00.0,31.2,24.1,05.7,0000.0,0003.35,0001.72,0001.30
2021-12-11 02:49:00,,0822.4,5.01,0.00,22.3,22.3,00.0,31.2,24.1,05.7,0000.0,0003.29,0001.72,0001.30
2021-12-11 02:50:00,,0822.4,5.00,0.00,22.3,22.1,00.0,31.2,24.0,05.6,0000.0,0003.36,0001.74,0001.32
2021-12-11 02:51:00,,0822.4,5.00,0.00,22.2,21.9,00.0,31.2,23.9,05.7,0000.0,0003.94,0001.79,0001.32
2021-12-11 02:52:00,,0822.5,5.00,0.00,22.2,21.8,00.0,31.2,23.8,05.6,0000.0,0004.16,0001.84,0001.33
2021-12-11 02:53:00,,0822.4,5.01,0.00,22.2,21.7,00.0,31.2,23.8,05.7,0000.0,0004.18,0001.85,0001.32
2021-12-11 02:54:00,,0822.4,5.00,0.00,22.1,21.5,00.0,31.2,23.7,05.6,0000.0,0004.05,0001.83,0001.32
2021-12-11 02:55:00,,0822.5,4.99,0.00,22.1,21.4,00.0,31.2,23.7,05.6,0000.0,0003.99,0001.83,0001.33
2021-12-11 02:56:00,,0822.5,5.00,0.00,22.0,21.4,00.0,31.2,23.6,05.6,0000.0,0004.05,0001.85,0001.33
2021-12-11 02:57:00,,0822.5,5.01,0.00,22.0,21.3,00.0,31.1,23.5,05.6,0000.0,0003.93,0001.83,0001.31
2021-12-11 02:58:00,,0822.6,4.99,0.00,22.0,21.3,00.0,31.1,23.5,05.6,0000.0,0003.61,0001.80,0001.28
2021-12-11 02:59:00,,0822.6,5.01,0.00,22.0,21.7,00.0,31.1,23.7,05.6,0000.0,0003.39,0001.75,0001.26
